FW9685 Weather Reports


Display with metric or nautical units.
time (UTC)temp
F
wind
direction
speed
MPH
gust
MPH
rain 1hr
in
rain 24hr
in
rain mn
in
humidity
%
barometer
mb
20260831053110 84 162 8.0 14.0 0.00 0.00 0.00 41 1016.8
20260831051611 84 163 8.0 14.0 0.00 0.00 0.00 40 1016.8
20260831050118 84 163 8.0 14.0 0.00 0.00 0.00 40 1016.6
20260831044613 85 157 9.0 16.0 0.00 0.00 0.00 39 1016.6
20260831043107 85 148 10.0 13.0 0.00 0.00 0.00 38 1016.5
20260831041604 85 145 10.0 15.0 0.00 0.00 0.00 37 1016.6
20260831040109 86 150 10.0 15.0 0.00 0.00 0.00 36 1016.4
20260831034603 87 137 11.0 15.0 0.00 0.00 0.00 35 1016.3
20260831033110 87 140 11.0 18.0 0.00 0.00 0.00 34 1016.4
20260831031604 88 146 11.0 16.0 0.00 0.00 0.00 34 1016.1
20260831030104 88 134 11.0 15.0 0.00 0.00 0.00 33 1016.1
20260831024608 88 130 10.0 15.0 0.00 0.00 0.00 33 1015.8
20260831023112 89 129 9.0 15.0 0.00 0.00 0.00 32 1015.7
20260831021607 90 124 11.0 18.0 0.00 0.00 0.00 31 1015.4
20260831020109 90 132 13.0 17.0 0.00 0.00 0.00 31 1015.2
20260831014604 90 133 9.0 13.0 0.00 0.00 0.00 28 1015.1
20260831013111 91 125 8.0 13.0 0.00 0.00 0.00 27 1015.0
20260831011606 92 134 13.0 17.0 0.00 0.00 0.00 27 1015.0
20260831010105 93 138 14.0 20.0 0.00 0.00 0.00 27 1014.9
20260831004601 94 126 11.0 15.0 0.00 0.00 0.00 27 1015.0
20260831003111 94 139 12.0 20.0 0.00 0.00 0.00 26 1014.9
20260831001610 95 132 11.0 18.0 0.00 0.00 0.00 26 1014.9
20260831000106 95 148 6.0 16.0 0.00 0.00 0.00 26 1014.5
20260830234612 95 154 11.0 20.0 0.00 0.00 0.00 26 1014.6
20260830233107 95 109 7.0 16.0 0.00 0.00 0.00 26 1014.8
20260830231607 95 119 4.0 11.0 0.00 0.00 0.00 27 1014.7
20260830230131 95 144 7.0 16.0 0.00 0.00 0.00 27 1014.8
20260830224600 96 150 10.0 22.0 0.00 0.00 0.00 27 1014.9
20260830223112 96 171 6.0 13.0 0.00 0.00 0.00 27 1014.6
20260830221610 96 152 10.0 17.0 0.00 0.00 0.00 28 1015.1
20260830220115 95 171 11.0 19.0 0.00 0.00 0.00 29 1015.2
20260830214620 95 130 7.0 19.0 0.00 0.00 0.00 29 1015.5
20260830213106 95 124 9.0 19.0 0.00 0.00 0.00 29 1015.6
20260830211607 95 134 12.0 19.0 0.00 0.00 0.00 29 1015.7
20260830210118 94 115 9.0 19.0 0.00 0.00 0.00 31 1016.0
20260830204608 94 159 8.0 24.0 0.00 0.00 0.00 31 1016.3
20260830203105 93 122 10.0 20.0 0.00 0.00 0.00 33 1016.5
20260830201604 94 133 12.0 22.0 0.00 0.00 0.00 32 1016.8
20260830200104 94 205 6.0 14.0 0.00 0.00 0.00 32 1016.8
20260830194609 93 168 10.0 18.0 0.00 0.00 0.00 33 1017.1
20260830193107 93 148 12.0 19.0 0.00 0.00 0.00 33 1017.3
20260830191603 93 176 6.0 19.0 0.00 0.00 0.00 34 1017.3
20260830190139 93 145 14.0 21.0 0.00 0.00 0.00 35 1017.4
20260830184628 92 167 13.0 19.0 0.00 0.00 0.00 37 1017.7
20260830183114 91 139 11.0 21.0 0.00 0.00 0.00 37 1018.0
20260830181603 91 153 11.0 17.0 0.00 0.00 0.00 39 1018.1
20260830180113 90 155 10.0 16.0 0.00 0.00 0.00 40 1018.6
20260830174611 90 164 10.0 18.0 0.00 0.00 0.00 41 1018.7
20260830173104 89 159 11.0 17.0 0.00 0.00 0.00 42 1018.8
20260830171604 88 131 8.0 17.0 0.00 0.00 0.00 43 1018.8
20260830170107 87 176 8.0 19.0 0.00 0.00 0.00 44 1018.9
20260830164609 87 142 12.0 22.0 0.00 0.00 0.00 45 1019.1
20260830163106 86 174 12.0 19.0 0.00 0.00 0.00 47 1019.2
20260830161605 85 174 11.0 18.0 0.00 0.00 0.00 48 1019.1
20260830160107 85 196 10.0 20.0 0.00 0.00 0.00 50 1019.1
20260830154607 83 191 13.0 19.0 0.00 0.00 0.00 53 1018.9
20260830153113 83 180 8.0 20.0 0.00 0.00 0.00 55 1019.1
20260830151609 82 140 10.0 17.0 0.00 0.00 0.00 56 1019.2
20260830150106 81 156 13.0 19.0 0.00 0.00 0.00 57 1019.1
20260830144608 80 172 12.0 20.0 0.00 0.00 0.00 59 1018.9
20260830143106 79 169 15.0 22.0 0.00 0.00 0.00 61 1018.6
20260830141612 78 152 11.0 17.0 0.00 0.00 0.00 62 1018.6
20260830140109 78 163 11.0 19.0 0.00 0.00 0.00 63 1018.8
20260830134611 77 157 11.0 17.0 0.00 0.00 0.00 63 1018.8
20260830133108 76 156 10.0 17.0 0.00 0.00 0.00 63 1018.5
20260830131606 76 157 8.0 14.0 0.00 0.00 0.00 63 1018.4
20260830130109 75 150 8.0 12.0 0.00 0.00 0.00 62 1018.5
20260830124600 75 163 7.0 12.0 0.00 0.00 0.00 63 1018.4
20260830123107 74 167 7.0 11.0 0.00 0.00 0.00 62 1018.1
20260830121607 75 163 7.0 11.0 0.00 0.00 0.00 61 1017.8
20260830120109 75 159 8.0 11.0 0.00 0.00 0.00 60 1017.6
20260830114604 75 151 7.0 11.0 0.00 0.00 0.00 59 1017.7
20260830113107 76 156 7.0 11.0 0.00 0.00 0.00 57 1018.0
20260830111606 77 149 8.0 14.0 0.00 0.00 0.00 56 1017.8
20260830110109 77 169 6.0 11.0 0.00 0.00 0.00 55 1017.8
20260830104614 77 191 7.0 14.0 0.00 0.00 0.00 54 1017.7
20260830103104 78 174 8.0 15.0 0.00 0.00 0.00 54 1017.7
20260830101605 78 187 7.0 15.0 0.00 0.00 0.00 53 1017.7
20260830100106 78 175 7.0 14.0 0.00 0.00 0.00 53 1017.8
20260830094601 79 175 7.0 16.0 0.00 0.00 0.00 52 1017.7
20260830093104 79 173 8.0 13.0 0.00 0.00 0.00 51 1017.6
20260830091605 79 172 7.0 14.0 0.00 0.00 0.00 51 1017.6
20260830090104 80 170 8.0 14.0 0.00 0.00 0.00 50 1017.5
20260830084602 80 180 7.0 12.0 0.00 0.00 0.00 50 1017.7
20260830083108 80 169 7.0 12.0 0.00 0.00 0.00 50 1017.6
20260830081610 81 169 7.0 18.0 0.00 0.00 0.00 49 1017.5
20260830074607 81 178 7.0 14.0 0.00 0.00 0.00 48 1017.8
20260830073117 82 171 7.0 13.0 0.00 0.00 0.00 48 1017.8
20260830071600 82 194 7.0 14.0 0.00 0.00 0.00 47 1018.0
20260830070107 82 169 7.0 14.0 0.00 0.00 0.00 47 1018.1
20260830064602 83 175 8.0 16.0 0.00 0.00 0.00 46 1018.3
20260830063114 83 179 7.0 14.0 0.00 0.00 0.00 45 1018.2
20260830061600 83 171 8.0 14.0 0.00 0.00 0.00 45 1018.2
20260830054600 84 182 6.0 12.0 0.00 0.00 0.00 43 1018.3